Hourly Weather Bolshie Izori

Today, 20 June, Sunday

Time Temperature Precipitation Wind Pressure Humidity
00:00 +18°C° 0 mm 2 mps 755 mmHg 87%
01:00 +17°C° 0 mm 2 mps 755 mmHg 91%
02:00 +17°C° 0 mm 2 mps 755 mmHg 95%
03:00 +18°C° 0 mm 2 mps 755 mmHg 93%
04:00 +19°C° 0 mm 1 mps 755 mmHg 92%
05:00 +20°C° 0 mm 1 mps 755 mmHg 90%
06:00 +21°C° 0 mm 2 mps 755 mmHg 82%
07:00 +24°C° 0 mm 2 mps 755 mmHg 74%
08:00 +26°C° 0 mm 2 mps 755 mmHg 66%
09:00 +28°C° 0 mm 2 mps 754 mmHg 60%
10:00 +29°C° 0 mm 2 mps 754 mmHg 54%
11:00 +30°C° 0 mm 3 mps 754 mmHg 49%
12:00 +31°C° 0 mm 3 mps 754 mmHg 46%
13:00 +33°C° 0 mm 3 mps 754 mmHg 44%
14:00 +33°C° 0 mm 3 mps 754 mmHg 41%
15:00 +32°C° 0 mm 2 mps 753 mmHg 44%
16:00 +32°C° 0 mm 2 mps 753 mmHg 46%
17:00 +32°C° 0 mm 2 mps 753 mmHg 48%
18:00 +29°C° 0.1 mm 1 mps 753 mmHg 56%
19:00 +27°C° 0.1 mm 1 mps 753 mmHg 64%
20:00 +25°C° 0.1 mm 1 mps 753 mmHg 72%
21:00 +24°C° 0.5 mm 1 mps 753 mmHg 78%
22:00 +23°C° 0.5 mm 1 mps 753 mmHg 83%
23:00 +21°C° 0.5 mm 1 mps 753 mmHg 88%

Tomorrow, 21 June, Monday

Time Temperature Precipitation Wind Pressure Humidity
00:00 +21°C° 0.2 mm 1 mps 753 mmHg 90%
01:00 +21°C° 0.2 mm 1 mps 753 mmHg 93%
02:00 +20°C° 0.2 mm 1 mps 753 mmHg 95%
03:00 +21°C° 0 mm 1 mps 753 mmHg 95%
04:00 +21°C° 0 mm 1 mps 753 mmHg 94%
05:00 +22°C° 0 mm 1 mps 753 mmHg 94%
06:00 +23°C° 0 mm 1 mps 753 mmHg 87%
07:00 +25°C° 0 mm 2 mps 753 mmHg 80%
08:00 +26°C° 0 mm 2 mps 753 mmHg 73%
09:00 +28°C° 0 mm 2 mps 753 mmHg 64%
10:00 +30°C° 0 mm 3 mps 753 mmHg 55%
11:00 +31°C° 0 mm 3 mps 753 mmHg 46%
12:00 +33°C° 0 mm 3 mps 753 mmHg 43%
13:00 +34°C° 0 mm 3 mps 753 mmHg 40%
14:00 +34°C° 0 mm 3 mps 753 mmHg 37%
15:00 +34°C° 0 mm 3 mps 752 mmHg 38%
16:00 +33°C° 0 mm 3 mps 752 mmHg 40%
17:00 +33°C° 0 mm 3 mps 752 mmHg 42%
18:00 +29°C° 0 mm 2 mps 752 mmHg 51%
19:00 +27°C° 0 mm 2 mps 752 mmHg 61%
20:00 +24°C° 0 mm 2 mps 752 mmHg 71%
21:00 +23°C° 0 mm 2 mps 752 mmHg 73%
22:00 +21°C° 0 mm 2 mps 752 mmHg 75%
23:00 +20°C° 0 mm 2 mps 752 mmHg 76%

Day after tomorrow, 22 June, Tuesday

Time Temperature Precipitation Wind Pressure Humidity
00:00 +20°C° 0 mm 2 mps 752 mmHg 79%
01:00 +20°C° 0 mm 2 mps 752 mmHg 82%
02:00 +19°C° 0 mm 2 mps 752 mmHg 85%
03:00 +20°C° 0 mm 2 mps 752 mmHg 86%
04:00 +20°C° 0 mm 2 mps 752 mmHg 86%
05:00 +21°C° 0 mm 2 mps 752 mmHg 86%
06:00 +24°C° 0 mm 2 mps 752 mmHg 78%
07:00 +26°C° 0 mm 3 mps 752 mmHg 70%
08:00 +28°C° 0 mm 3 mps 752 mmHg 62%
09:00 +29°C° 0 mm 4 mps 752 mmHg 54%
10:00 +32°C° 0 mm 4 mps 752 mmHg 46%
11:00 +33°C° 0 mm 4 mps 752 mmHg 38%
12:00 +33°C° 0 mm 4 mps 752 mmHg 37%
13:00 +34°C° 0 mm 4 mps 752 mmHg 35%
14:00 +35°C° 0 mm 4 mps 751 mmHg 34%
15:00 +34°C° 0 mm 4 mps 751 mmHg 36%
16:00 +34°C° 0 mm 4 mps 751 mmHg 39%
17:00 +33°C° 0 mm 3 mps 751 mmHg 42%
18:00 +30°C° 0 mm 3 mps 751 mmHg 52%
19:00 +28°C° 0 mm 2 mps 751 mmHg 62%
20:00 +26°C° 0 mm 2 mps 751 mmHg 72%
21:00 +25°C° 0 mm 2 mps 751 mmHg 74%
22:00 +24°C° 0 mm 2 mps 752 mmHg 77%
23:00 +23°C° 0 mm 2 mps 752 mmHg 79%

23 June, Wednesday

Time Temperature Precipitation Wind Pressure Humidity
00:00 +21°C° 0 mm 2 mps 752 mmHg 83%
01:00 +21°C° 0 mm 2 mps 752 mmHg 87%
02:00 +20°C° 0 mm 2 mps 752 mmHg 91%
03:00 +21°C° 0 mm 2 mps 753 mmHg 90%
04:00 +21°C° 0 mm 2 mps 753 mmHg 89%
05:00 +21°C° 0 mm 2 mps 753 mmHg 88%
06:00 +24°C° 0 mm 2 mps 753 mmHg 78%
07:00 +26°C° 0 mm 3 mps 753 mmHg 68%
08:00 +28°C° 0 mm 3 mps 753 mmHg 58%
09:00 +30°C° 0 mm 3 mps 753 mmHg 51%
10:00 +31°C° 0 mm 3 mps 753 mmHg 44%
11:00 +34°C° 0 mm 3 mps 753 mmHg 37%
12:00 +34°C° 0 mm 3 mps 753 mmHg 36%
13:00 +35°C° 0 mm 3 mps 753 mmHg 34%
14:00 +36°C° 0 mm 4 mps 753 mmHg 32%
15:00 +35°C° 0 mm 3 mps 753 mmHg 35%
16:00 +35°C° 0 mm 3 mps 752 mmHg 38%
17:00 +35°C° 0 mm 3 mps 752 mmHg 41%
18:00 +32°C° 0 mm 2 mps 752 mmHg 51%
19:00 +30°C° 0 mm 2 mps 752 mmHg 60%
20:00 +27°C° 0 mm 2 mps 752 mmHg 70%
21:00 +27°C° 0 mm 2 mps 752 mmHg 73%
22:00 +26°C° 0 mm 2 mps 752 mmHg 76%
23:00 +25°C° 0 mm 2 mps 753 mmHg 80%

24 June, Thursday

Time Temperature Precipitation Wind Pressure Humidity
00:00 +24°C° 0.1 mm 2 mps 753 mmHg 83%
01:00 +23°C° 0.1 mm 2 mps 753 mmHg 85%
02:00 +23°C° 0.1 mm 2 mps 753 mmHg 88%
03:00 +23°C° 0 mm 2 mps 752 mmHg 88%
04:00 +23°C° 0 mm 2 mps 752 mmHg 88%
05:00 +23°C° 0 mm 2 mps 752 mmHg 88%
06:00 +25°C° 0 mm 2 mps 752 mmHg 79%
07:00 +27°C° 0 mm 3 mps 752 mmHg 71%
08:00 +29°C° 0 mm 3 mps 752 mmHg 63%
09:00 +30°C° 0 mm 3 mps 752 mmHg 55%
10:00 +33°C° 0 mm 3 mps 752 mmHg 48%
11:00 +34°C° 0 mm 4 mps 752 mmHg 40%
12:00 +35°C° 0 mm 4 mps 751 mmHg 38%
13:00 +35°C° 0 mm 4 mps 751 mmHg 37%
14:00 +36°C° 0 mm 4 mps 751 mmHg 35%
15:00 +36°C° 0 mm 4 mps 751 mmHg 37%
16:00 +35°C° 0 mm 4 mps 750 mmHg 40%
17:00 +35°C° 0 mm 4 mps 750 mmHg 42%
18:00 +29°C° 0.8 mm 3 mps 750 mmHg 59%
19:00 +25°C° 0.8 mm 2 mps 750 mmHg 77%
20:00 +19°C° 0.8 mm 2 mps 750 mmHg 95%
21:00 +19°C° 0.2 mm 2 mps 750 mmHg 95%
22:00 +20°C° 0.2 mm 2 mps 750 mmHg 95%
23:00 +21°C° 0.2 mm 1 mps 750 mmHg 95%

25 June, Friday

Time Temperature Precipitation Wind Pressure Humidity
00:00 +21°C° 1.1 mm 1 mps 750 mmHg 96%
01:00 +21°C° 1.1 mm 1 mps 750 mmHg 96%
02:00 +21°C° 1.1 mm 1 mps 749 mmHg 97%
03:00 +21°C° 0.1 mm 1 mps 749 mmHg 97%
04:00 +22°C° 0.1 mm 1 mps 749 mmHg 96%
05:00 +22°C° 0.1 mm 1 mps 749 mmHg 96%
06:00 +24°C° 0 mm 1 mps 749 mmHg 89%
07:00 +26°C° 0 mm 1 mps 749 mmHg 81%
08:00 +27°C° 0 mm 2 mps 749 mmHg 74%
09:00 +29°C° 0 mm 2 mps 749 mmHg 65%
10:00 +31°C° 0 mm 2 mps 749 mmHg 57%
11:00 +34°C° 0 mm 3 mps 748 mmHg 48%
12:00 +34°C° 0 mm 3 mps 748 mmHg 45%
13:00 +35°C° 0 mm 3 mps 748 mmHg 43%
14:00 +35°C° 0 mm 3 mps 747 mmHg 41%
15:00 +35°C° 0 mm 3 mps 747 mmHg 42%
16:00 +34°C° 0 mm 3 mps 747 mmHg 44%
17:00 +34°C° 0 mm 3 mps 746 mmHg 46%
18:00 +30°C° 0.3 mm 3 mps 747 mmHg 57%
19:00 +28°C° 0.3 mm 2 mps 747 mmHg 68%
20:00 +26°C° 0.3 mm 2 mps 747 mmHg 79%
21:00 +25°C° 0.1 mm 2 mps 747 mmHg 81%
22:00 +24°C° 0.1 mm 2 mps 746 mmHg 83%
23:00 +24°C° 0.1 mm 2 mps 746 mmHg 85%
Show more